Simultaneous Nadir Overpasses (SNOs) Predictions

Prediction of SNOs near equator between AQUA and NPP Satellite Orbit:

Table of predicted SNOs near equator for the next 14.0 days since TLE Epoch: 11/2/2018
Index Date (AQUA) Time (AQUA) AQUA Lat,Lon Date (NPP) Time (NPP) NPP Lat,Lon Distance(km) Time Diff (sec)
1 11/03/2018 07:52:46 5.57, 84.88 11/03/2018 07:42:57 5.53, 84.74 15.96 589
2 11/03/2018 08:40:52 -0.98,-106.48 11/03/2018 08:32:19 -0.92,-106.89 46.13 513
3 11/03/2018 09:29:08 -3.56, 62.10 11/03/2018 09:21:50 -3.69, 61.43 75.97 438
4 11/06/2018 00:08:47 3.95,-158.89 11/05/2018 23:59:25 3.91,-159.13 27.06 562
5 11/06/2018 00:56:54 0.59, 9.73 11/06/2018 00:48:47 0.70, 9.23 57.17 487
6 11/06/2018 01:45:10 -5.12, 178.32 11/06/2018 01:38:18 -5.31, 177.56 86.95 412
7 11/08/2018 15:42:48 -29.48, 143.52 11/08/2018 15:32:48 -29.51, 143.17 34.53 600
8 11/08/2018 16:24:48 2.33, -42.66 11/08/2018 16:15:52 2.23, -42.99 38.28 536
9 11/08/2018 17:12:55 2.21, 125.96 11/08/2018 17:05:15 2.32, 125.36 68.27 460
10 11/08/2018 18:01:10 -6.80, -65.44 11/08/2018 17:54:45 -6.99, -66.30 97.62 385
11 11/11/2018 07:52:34 -5.29, -95.03 11/11/2018 07:42:49 -5.23, -95.19 19.29 585
12 11/11/2018 08:40:49 0.72, 73.57 11/11/2018 08:32:20 0.62, 73.13 49.39 509
13 11/11/2018 09:28:57 3.77,-117.82 11/11/2018 09:21:43 3.94,-118.52 79.28 434
14 11/14/2018 00:08:34 -3.67, 21.20 11/13/2018 23:59:16 -3.61, 20.94 30.25 558
15 11/14/2018 00:56:49 -0.89,-170.21 11/14/2018 00:48:47 -1.00,-170.74 60.61 482
16 11/14/2018 01:44:56 5.45, -1.58 11/14/2018 01:38:09 5.61, -2.38 90.11 407
17 11/16/2018 15:39:28 17.51, -33.59 11/16/2018 15:29:28 17.55, -33.83 25.58 600
18 11/16/2018 16:24:35 -2.06, 137.43 11/16/2018 16:15:44 -2.00, 137.06 41.52 531
19 11/16/2018 17:12:49 -2.55, -53.97 11/16/2018 17:05:14 -2.67, -54.60 71.76 455




NCC Satellite Simultaneous Nadir Overpasses (SNOs) Prediction Service
